Barrow, AK

9:44 PM AKDT on June 18, 2018 (GMT -0800)
Wiley Post-Will Rogers Memorial

Weather History for PABR - November, 2017

Change the Weather History Date:

Thursday, November 2, 2017

  Actual Average Record
Temperature  
Mean Temperature 33 °F 7 °F  
Max Temperature 36 °F 12 °F 36 °F (2017)
Min Temperature 32 °F 2 °F -24 °F (1975)
Degree Days  
Heating Degree Days 32 58  
Month to date heating degree days 39 116  
Since 1 July heating degree days 3539 4139  
Moisture  
Dew Point 31 °F    
Average Humidity 90    
Maximum Humidity 93    
Minimum Humidity 82    
Precipitation  
Precipitation 0.04 in 0.01 in 0.39 in (1958)
Month to date precipitation 0.04 0.02  
Year to date precipitation 7.08 4.20  
Snow  
Snow 0.40 in 0.30 in 3.90 in (1958)
Month to date snowfall 0.4 0.5  
Since 1 July snowfall 8.3 15.1  
Since 1 September snowfall 7.5 14.0  
Snow Depth 1.00 in    
Sea Level Pressure  
Sea Level Pressure 30.03 in    
Wind  
Wind Speed 26 mph (WSW)    
Max Wind Speed 32 mph    
Max Gust Speed 41 mph    
Visibility 5 miles    
Events Snow    
T = Trace of Precipitation, MM = Missing Value Source: NWS Daily Summary

Daily Weather History Graph

Daily Weather History Graph

Search for Another Location

Airport or City:

Astronomy

Nov. 02, 2017 Rise Set
Actual Time 11:22 AM AKDT 4:57 PM AKDT
Civil Twilight 9:58 AM AKDT 6:21 PM AKDT
Nautical Twilight 8:37 AM AKDT 7:41 PM AKDT
Astronomical Twilight 7:22 AM AKDT 8:56 PM AKDT
Moon 6:13 PM AKDT (11/2) 7:35 AM AKDT (11/2)
Length of Visible Light 8h 23m
Length of Day
5h 34m
Waxing Gibbous, 97% of the Moon is Illuminated
Nov 2
Waxing Gibbous
Nov 3
Full
Nov 10
Last Quarter
Nov 18
New
Nov 26
First Quarter

Hourly Weather History & Observations

Time (AKDT) Temp. Windchill Dew Point Humidity Pressure Visibility Wind Dir Wind Speed Gust Speed Precip Events Conditions
12:53 AM - - - N/A% 30.20 in 10.0 mi SW 19.6 mph - N/A   Overcast
1:53 AM - - - N/A% 30.18 in 10.0 mi WSW 25.3 mph - N/A   Overcast
2:33 AM - - - N/A% 30.16 in 10.0 mi SW 27.6 mph 33.4 mph N/A   Overcast
2:47 AM - - - N/A% 30.15 in 2.5 mi SW 25.3 mph - 0.00 in   Unknown
2:48 AM - - - N/A% 30.15 in 2.5 mi SW 25.3 mph - 0.00 in   Unknown
2:53 AM - - - N/A% 30.16 in 2.5 mi SW 24.2 mph - 0.00 in   Unknown
2:57 AM - - - N/A% 30.15 in 3.0 mi SW 25.3 mph 33.4 mph 0.00 in   Unknown
3:06 AM - - - N/A% 30.15 in 5.0 mi SW 25.3 mph - 0.00 in   Unknown
3:53 AM - - - N/A% 30.13 in 10.0 mi WSW 27.6 mph 35.7 mph 0.00 in   Overcast
4:53 AM - - - N/A% 30.11 in 10.0 mi WSW 29.9 mph - N/A   Overcast
5:53 AM 32.0 °F 17.6 °F 30.0 °F 92% 30.09 in 10.0 mi SW 29.9 mph 36.8 mph N/A   Overcast
6:53 AM 34.0 °F 21.3 °F 30.0 °F 85% 30.07 in 10.0 mi SW 25.3 mph 35.7 mph N/A   Overcast
7:53 AM 34.0 °F 19.9 °F 30.9 °F 89% 30.06 in 10.0 mi WSW 32.2 mph 39.1 mph N/A   Overcast
8:53 AM 34.0 °F 20.8 °F 30.9 °F 89% 30.05 in 5.0 mi WSW 27.6 mph - N/A   Overcast
9:25 AM 34.0 °F 21.0 °F 30.9 °F 89% 30.04 in 2.5 mi SW 26.5 mph - N/A   Overcast
9:35 AM 34.0 °F 21.5 °F 30.9 °F 89% 30.03 in 4.0 mi WSW 24.2 mph - N/A   Overcast
9:53 AM 34.0 °F 20.5 °F 30.9 °F 89% 30.03 in 8.0 mi WSW 28.8 mph - N/A   Overcast
10:53 AM 34.0 °F 20.5 °F 30.9 °F 89% 30.02 in 4.0 mi WSW 28.8 mph 36.8 mph 0.00 in Snow Light Snow
11:53 AM 34.0 °F 21.3 °F 30.9 °F 89% 30.01 in 8.0 mi SW 25.3 mph 34.5 mph 0.00 in   Overcast
12:20 PM 34.0 °F 21.3 °F 30.9 °F 89% 29.99 in 2.5 mi SW 25.3 mph - 0.00 in Snow Light Snow
12:29 PM 34.0 °F 21.8 °F 30.9 °F 89% 29.99 in 4.0 mi SW 23.0 mph - 0.00 in Snow Light Snow
12:53 PM 34.0 °F 21.5 °F 30.9 °F 89% 30.00 in 2.5 mi SW 24.2 mph 33.4 mph 0.00 in Snow Light Snow
1:09 PM 34.0 °F 21.0 °F 32.0 °F 92% 29.99 in 5.0 mi WSW 26.5 mph 34.5 mph 0.00 in Snow Light Snow
1:53 PM 34.0 °F 20.5 °F 32.0 °F 92% 29.98 in 5.0 mi WSW 28.8 mph 38.0 mph 0.00 in Snow Light Snow
2:14 PM 34.0 °F 19.9 °F 32.0 °F 92% 29.98 in 1.8 mi WSW 32.2 mph - 0.00 in Snow Light Snow
2:29 PM 34.0 °F 20.3 °F 32.0 °F 92% 29.98 in 3.0 mi WSW 29.9 mph 36.8 mph 0.00 in Snow Light Snow
2:45 PM 34.0 °F 20.8 °F 32.0 °F 92% 29.97 in 2.0 mi WSW 27.6 mph - 0.01 in Snow Light Snow
2:53 PM 34.0 °F 19.9 °F 32.0 °F 92% 29.97 in 2.5 mi WSW 32.2 mph 41.4 mph 0.01 in Snow Light Snow
3:02 PM 34.0 °F 20.3 °F 32.0 °F 92% 29.97 in 3.0 mi WSW 29.9 mph 35.7 mph 0.00 in Snow Light Snow
3:15 PM 34.0 °F 20.1 °F 32.0 °F 92% 29.96 in 2.5 mi WSW 31.1 mph 39.1 mph 0.00 in Snow Light Snow
3:29 PM 34.0 °F 20.3 °F 32.0 °F 92% 29.96 in 3.0 mi WSW 29.9 mph 40.3 mph 0.00 in Snow Light Snow
3:53 PM 34.0 °F 20.3 °F 32.0 °F 92% 29.96 in 3.0 mi WSW 29.9 mph 38.0 mph 0.00 in Snow Light Snow
4:20 PM 34.0 °F 20.5 °F 32.0 °F 92% 29.96 in 2.5 mi WSW 28.8 mph 39.1 mph 0.00 in Snow Light Snow
4:49 PM 33.8 °F 20.8 °F 32.0 °F 93% 29.96 in 2.0 mi WSW 26.5 mph 36.8 mph 0.00 in Snow Light Snow
4:53 PM 34.0 °F 20.5 °F 32.0 °F 92% 29.96 in 2.0 mi WSW 28.8 mph 36.8 mph 0.00 in Snow Light Snow
5:04 PM 34.0 °F 20.8 °F 32.0 °F 92% 29.96 in 3.0 mi WSW 27.6 mph - 0.00 in Snow Light Snow
5:53 PM 34.0 °F 21.0 °F 32.0 °F 92% 29.96 in 2.5 mi WSW 26.5 mph - 0.00 in Snow Light Snow
6:11 PM 34.0 °F 21.0 °F 30.9 °F 89% 29.95 in 4.0 mi WSW 26.5 mph - 0.00 in Snow Light Snow
6:53 PM 34.0 °F 21.0 °F 30.9 °F 89% 29.96 in 5.0 mi SW 26.5 mph - 0.01 in Snow Light Snow
7:53 PM 34.0 °F 21.0 °F 30.9 °F 89% 29.96 in 5.0 mi SW 26.5 mph - 0.00 in Snow Light Snow
8:09 PM 34.0 °F 21.5 °F 32.0 °F 92% 29.95 in 4.0 mi SW 24.2 mph - 0.00 in Snow Light Snow
8:53 PM 34.0 °F 21.0 °F 32.0 °F 92% 29.96 in 7.0 mi WSW 26.5 mph 34.5 mph 0.01 in   Overcast
9:53 PM 36.0 °F 23.9 °F 30.9 °F 82% 29.97 in 7.0 mi WSW 25.3 mph 35.7 mph N/A   Mostly Cloudy
10:53 PM - - - N/A% 29.97 in 7.0 mi WSW 26.5 mph - N/A   Overcast
11:53 PM - - - N/A% 29.98 in 7.0 mi WSW 25.3 mph - N/A   Mostly Cloudy